CAPE
0 0 0 0 6 7 3 11 8 2 0 0 0 0 0 0 0 0 0 0 0 0 0 0 0 0 0 0 0 0 0 0 0 0 0 0 0 0
0 0 0 0 0 0 0 0 0 2 0 0 0 0 0 0 0 0 0 0 0 0 0 0 0 0 0 0 0 0 0 0 0 0 0 0 1 1
0 0 0 0 0 0 0 0 0 0 0 0 0 0 0 0 0 0 1 5 0 0 0 0 0 0 0 0 0 0 0 0 0 0 0 1 3 5
0 0 0 0 0 0 0 0 0 0 0 0 0 0 0 2 4 7 3 2 3 0 2 0 0 0 0 0 0 0 0 0 0 0 0 0 3 3
0 0 0 0 0 0 0 0 0 0 0 1 0 1 2 2 4 2 13 5 6 0 0 0 1 0 0 0 0 0 0 0 0 0 0 0 1 1
0 0 0 0 0 0 0 0 0 0 1 2 2 0 1 0 0 1 1 1 1 0 3 2 0 0 0 0 0 0 0 0 0 0 0 0 0 0
0 0 0 0 0 0 0 0 0 0 2 5 4 2 2 2 4 0 2 1 0 1 3 0 0 0 0 0 0 0 0 0 1 1 0 0 0 0
0 0 0 0 0 0 0 0 0 0 2 2 1 2 2 1 5 2 1 4 4 6 0 0 0 0 0 1 0 2 0 0 1 1 2 0 0 0
0 0 0 0 0 0 0 0 0 0 6 1 1 2 1 1 0 1 2 3 2 0 1 1 4 1 0 1 0 3 0 0 1 1 0 2 0 1
0 0 0 0 0 0 0 0 0 0 0 0 0 0 0 0 0 0 1 3 2 1 3 1 2 1 3 0 0 0 0 1 2 1 2 2 0 0
0 0 0 0 0 0 0 0 0 0 0 0 0 0 0 0 2 2 0 1 0 0 0 0 1 0 0 0 1 0 0 0 0 0 0 0 1 0
0 0 0 0 0 0 0 0 0 0 0 0 0 0 0 0 0 0 0 0 0 0 1 1 0 1 0 0 0 0 0 0 0 0 0 0 0 0
0 0 0 0 0 0 0 1 0 0 0 0 0 0 0 0 0 0 0 0 0 0 1 0 0 1 1 2 1 0 0 0 0 0 0 0 0 0
0 0 0 0 1 1 0 1 1 3 1 0 0 0 0 0 0 0 0 0 0 0 1 2 1 2 1 2 2 0 0 0 1 0 0 0 0 0
0 0 0 0 0 0 0 2 2 0 1 0 0 0 0 0 0 0 0 0 0 0 0 0 0 0 0 1 1 1 1 0 0 0 0 0 0 0
0 0 0 0 0 0 0 2 0 0 0 1 1 0 0 0 0 0 0 0 0 0 0 0 0 0 0 0 0 1 1 2 0 0 1 0 0 0
1 0 0 0 0 0 0 0 3 0 0 0 1 1 0 0 0 0 0 0 0 0 0 0 0 0 0 0 0 0 1 1 1 1 1 0 0 0
1 1 0 0 0 0 2 0 1 0 0 1 1 1 1 0 0 0 0 0 0 0 0 0 0 0 0 0 0 0 1 0 0 0 0 1 0 0
1 0 0 0 0 0 0 0 0 0 0 1 1 1 1 1 1 0 0 0 0 1 0 0 0 0 0 0 0 0 0 0 0 2 1 1 1 0
0 0 0 0 4 1 0 1 0 0 1 1 1 1 1 1 0 0 0 0 0 0 0 0 0 0 0 1 1 0 0 0 0 0 1 1 0 0
0 1 1 1 5 3 1 0 0 0 1 0 1 1 1 1 0 0 0 0 0 0 0 0 0 0 0 0 1 1 0 0 0 1 0 1 0 0
4 0 0 4 5 8 0 2 0 0 0 0 1 1 1 0 0 0 0 0 0 1 0 0 0 0 0 1 1 0 0 0 0 0 0 1 1 0
0 0 1 3 2 5 1 3 1 0 0 1 0 0 0 0 0 0 0 0 0 0 0 0 0 0 0 0 0 0 0 0 0 0 0 0 0 0
CIN
-0 -0 -0 -1 -0 -4 -6 -0 -0 -0 -0 -0 -0 -0 -0 -0 -0 -0 -0 -0 -0 -0 -0 -0 -0 -0 -0 -0 -0 -0 -0 -0 -0 -0 -0 -0 -0 -0
-0 -0 -0 -0 -0 -0 -0 -0 -0 -0 -0 -0 -0 -0 -0 -0 -0 -0 -0 -3 -0 -0 -0 -0 -0 -0 -0 -0 -0 -0 -0 -0 -0 -0 -0 -0 -0 -0
-0 -0 -0 -0 -0 -0 -0 -0 -0 -0 -0 -0 -0 -0 -0 -0 -0 -0 -2 -1 -0 -0 -0 -0 -0 -0 -0 -0 -0 -0 -0 -0 -0 -0 -0 -0 -0 -0
-0 -0 -0 -0 -0 -0 -0 -0 -0 -0 -0 -0 -0 -0 -0 -0 -0 -1 -2 -4 -5 -5 -12 -1 -0 -0 -0 -0 -0 -0 -0 -0 -0 -0 -0 -0 -0 -0
-0 -0 -0 -0 -0 -0 -0 -0 -0 -0 -0 -0 -0 -0 -1 -0 -1 -0 -1 -2 -7 -5 -0 -0 -8 -0 -0 -0 -0 -0 -0 -0 -0 -0 -0 -0 -0 -0
-0 -0 -0 -0 -0 -0 -0 -0 -0 -0 -0 -0 -0 -0 -0 -0 -0 -1 -1 -1 -1 -0 -15 -13 -0 -0 -0 -0 -0 -0 -0 -0 -0 -0 -0 -0 -0 -0
-0 -0 -0 -0 -0 -0 -0 -0 -0 -0 -0 -0 -0 -0 -0 -0 -0 -2 -0 -0 -0 -6 -2 -15 -0 -0 -0 -0 -0 -0 -1 -0 -0 -0 -0 -0 -0 -0
-0 -0 -0 -0 -0 -0 -0 -0 -0 -0 -0 -0 -0 -0 -0 -0 -0 -0 -0 -0 -0 -0 -0 -0 -0 -0 -0 -0 -0 -0 -0 -0 -0 -0 -0 -0 -0 -0
-0 -0 -0 -0 -0 -0 -0 -0 -0 -0 -0 -0 -0 -0 -0 -0 -0 -0 -0 -0 -0 -0 -0 -0 -0 -1 -0 -1 -0 -1 -1 -0 -0 -0 -0 -0 -0 -0
-0 -0 -0 -0 -0 -0 -0 -0 -0 -0 -0 -0 -0 -0 -0 -0 -0 -0 -0 -0 -0 -0 -0 -0 -1 -0 -0 -0 -0 -0 -0 -0 -0 -0 -0 -0 -0 -0
-0 -0 -0 -0 -0 -0 -0 -0 -0 -0 -0 -0 -0 -0 -0 -0 -0 -0 -0 -0 -0 -0 -0 -0 -0 -0 -0 -0 -0 -0 -0 -0 -0 -0 -0 -0 -0 -0
-0 -0 -0 -0 -0 -0 -0 -0 -0 -0 -0 -0 -0 -0 -0 -0 -0 -0 -0 -0 -0 -0 -0 -0 -0 -0 -0 -0 -0 -0 -0 -0 -0 -0 -0 -0 -0 -0
-0 -0 -0 -0 -0 -0 -0 -0 -0 -0 -0 -0 -0 -0 -0 -0 -0 -0 -0 -0 -0 -0 -0 -0 -0 -0 -0 -0 -0 -0 -0 -0 -0 -0 -0 -0 -0 -0
-0 -0 -0 -0 -0 -0 -0 -0 -0 -0 -0 -0 -0 -0 -0 -0 -0 -0 -0 -0 -0 -0 -0 -0 -0 -0 -0 -0 -0 -0 -0 -0 -0 -0 -0 -0 -0 -0
-0 -0 -0 -0 -0 -0 -0 -0 -0 -0 -0 -0 -0 -0 -0 -0 -0 -0 -0 -0 -0 -0 -0 -0 -0 -0 -0 -0 -0 -0 -0 -0 -0 -0 -0 -0 -0 -0
-0 -0 -0 -0 -0 -0 -0 -3 -0 -0 -0 -0 -0 -0 -0 -0 -0 -0 -0 -0 -0 -0 -0 -0 -0 -0 -0 -0 -1 -0 -0 -0 -0 -0 -0 -0 -0 -0
-0 -0 -0 -0 -0 -0 -0 -0 -20 -0 -0 -0 -0 -0 -0 -0 -0 -0 -0 -0 -0 -0 -0 -0 -0 -0 -0 -0 -0 -0 -0 -0 -0 -0 -0 -0 -0 -0
-0 -0 -0 -0 -0 -0 -0 -0 -17 -0 -0 -0 -0 -0 -0 -0 -0 -0 -0 -0 -0 -0 -0 -0 -0 -0 -0 -0 -0 -0 -0 -0 -0 -0 -0 -0 -0 -0
-0 -0 -0 -0 -0 -0 -0 -1 -0 -0 -0 -0 -0 -0 -0 -0 -0 -0 -0 -0 -0 -0 -0 -0 -0 -0 -0 -0 -0 -0 -0 -0 -0 -0 -0 -0 -0 -0
-0 -0 -0 -0 -1 -2 -0 -0 -0 -0 -0 -0 -0 -0 -0 -0 -0 -0 -0 -0 -0 -0 -0 -0 -0 -0 -0 -0 -0 -0 -0 -0 -0 -0 -0 -0 -0 -0
-0 -0 -0 -1 -4 -4 -4 -0 -0 -0 -0 -0 -0 -0 -0 -0 -0 -0 -0 -0 -0 -0 -0 -0 -0 -0 -0 -0 -0 -0 -0 -0 -0 -0 -0 -0 -0 -0
-3 -1 -0 -1 -0 -0 -0 -0 -1 -0 -0 -0 -0 -0 -0 -0 -0 -0 -0 -0 -0 -0 -0 -0 -0 -0 -0 -0 -0 -0 -0 -0 -0 -0 -0 -0 -0 -0
-0 -0 -0 -0 -0 -0 -0 -0 -1 -0 -0 -0 -0 -0 -0 -0 -0 -0 -0 -0 -0 -0 -0 -0 -0 -0 -0 -0 -0 -0 -0 -0 -0 -0 -0 -0 -0 -0
Wind_Speed
26 27 27 26 27 27 28 29 32 35 37 26 27 22 30 34 34 37 35 31 32 32 31 31 30 28 29 30 29 29 27 26 28 30 32 34 37 38
26 28 26 28 29 29 29 30 30 32 34 29 30 35 34 35 37 38 36 31 31 33 31 30 30 29 30 31 30 30 29 28 29 30 31 33 34 34
27 28 28 28 29 29 29 29 31 31 34 38 34 34 37 36 35 33 33 31 31 29 30 30 29 30 31 28 29 31 30 29 29 30 32 35 36 36
30 29 30 29 29 29 29 31 31 30 32 38 35 35 35 33 35 35 33 30 29 28 29 30 30 32 31 29 30 30 29 29 29 30 31 32 32 33
30 30 30 30 30 29 30 31 31 30 30 34 37 34 33 34 35 35 33 32 30 30 32 33 32 31 30 29 32 31 31 32 32 33 33 33 32 32
30 29 29 29 29 30 30 31 31 31 32 34 35 35 35 33 33 33 34 33 33 33 32 32 32 31 32 35 35 32 32 32 32 32 33 33 34 33
29 29 29 28 28 29 30 29 29 30 31 32 35 35 35 34 33 34 33 35 35 33 30 30 32 36 38 36 35 33 32 32 34 35 35 36 37 36
32 31 30 30 29 29 29 29 29 29 30 31 34 35 36 33 33 32 35 35 34 28 33 36 37 36 35 35 35 33 30 32 33 35 36 37 38 38
33 34 34 32 32 32 31 30 30 29 30 32 34 33 34 31 30 34 34 34 35 34 37 36 32 34 32 33 34 31 32 33 35 36 36 37 38 38
35 35 36 36 33 33 34 33 32 31 30 31 32 31 31 31 31 31 32 35 34 34 32 35 31 36 33 33 33 31 30 32 33 35 35 36 37 38
36 35 35 36 35 34 35 35 35 33 31 32 31 30 30 30 31 31 33 34 36 33 30 33 32 35 36 32 27 27 28 29 32 33 34 35 37 38
37 35 35 36 37 36 35 35 38 37 34 33 31 30 31 31 29 30 31 33 34 37 27 33 34 36 36 29 28 27 30 30 32 32 34 36 36 36
41 41 37 37 38 38 38 38 38 38 36 34 34 33 32 31 30 29 28 29 32 34 29 33 34 36 35 36 33 34 33 33 34 32 34 34 35 34
43 42 40 40 40 41 40 40 41 40 38 37 37 37 36 35 32 31 29 29 28 31 30 32 35 34 36 39 37 32 35 35 31 34 33 34 33 33
40 41 42 43 44 45 44 43 42 42 41 41 41 40 36 34 32 31 30 29 30 29 29 28 30 33 33 34 36 36 37 32 35 29 32 33 33 32
43 44 44 45 45 46 46 46 43 43 42 43 42 39 35 35 34 32 32 31 33 33 28 27 27 27 30 31 33 37 35 32 32 33 31 31 30 30
47 47 47 47 47 47 46 44 42 41 41 40 40 39 38 35 34 30 30 30 31 31 30 29 27 27 28 30 33 32 32 32 31 30 29 31 30 29
47 49 50 50 50 50 50 48 43 41 39 38 38 38 37 36 34 31 29 29 31 31 30 29 29 29 29 28 24 29 28 29 28 27 28 31 32 29
43 46 47 46 46 45 46 45 43 39 37 36 35 35 35 34 32 31 29 29 30 29 29 27 27 27 30 32 26 21 25 26 28 29 29 29 33 33
39 42 42 42 42 42 40 42 37 35 33 32 31 31 30 29 28 28 27 27 27 27 27 26 25 24 26 27 27 25 24 28 28 28 28 28 30 27
39 39 38 37 38 37 35 39 35 34 31 29 27 26 25 25 25 25 25 24 24 25 27 25 22 21 23 24 27 28 28 25 25 26 25 27 26 24
37 37 36 34 35 32 34 35 35 33 29 26 25 24 22 19 20 20 20 21 21 22 22 22 22 22 22 24 28 27 27 27 24 25 26 26 25 25
35 34 32 30 30 29 31 35 33 32 27 23 20 19 16 14 16 17 18 19 20 20 20 20 20 20 22 23 24 25 25 26 24 23 21 20 22 24
Wind_Direction
312 311 310 310 308 308 305 304 301 301 301 315 314 324 315 311 312 308 309 313 306 304 301 300 303 306 304 301 301 302 303 303 301 298 295 291 287 284
315 313 312 309 307 306 305 303 302 301 301 307 306 306 311 313 310 303 304 311 310 300 302 302 301 302 303 300 299 298 300 301 301 300 299 297 294 290
313 311 310 310 308 307 308 307 305 303 301 299 305 307 306 308 311 313 311 310 309 307 302 301 301 301 302 303 300 298 299 299 301 301 300 296 293 293
310 309 308 309 308 307 307 306 305 305 303 301 306 309 309 310 309 309 311 315 311 309 305 302 301 300 301 301 301 301 301 301 303 303 303 303 304 299
312 310 309 309 308 308 307 307 306 306 305 303 304 308 310 310 310 307 309 311 312 310 305 300 298 300 301 302 301 301 299 298 299 300 302 303 307 305
312 312 311 310 309 309 309 307 307 305 304 303 303 307 307 310 309 309 308 310 311 308 306 304 301 301 300 300 300 299 297 298 299 301 302 303 303 307
315 314 312 311 310 309 308 309 308 306 305 304 303 305 306 307 308 310 308 309 308 309 310 309 305 300 298 298 299 300 297 296 297 299 301 301 302 304
314 314 313 312 312 310 308 307 305 304 304 305 305 302 303 307 307 308 307 309 308 312 309 305 305 305 302 299 298 298 298 299 300 300 301 302 301 302
312 311 311 311 309 308 308 306 304 302 300 302 302 303 303 307 309 307 306 305 304 309 309 307 310 307 308 305 302 300 299 299 298 299 301 301 301 301
311 311 309 308 308 307 306 305 303 302 300 299 300 300 302 304 304 306 307 306 307 308 311 305 312 308 310 308 308 306 303 302 301 300 300 301 301 300
315 314 313 310 310 308 304 303 302 301 300 297 297 298 299 300 301 303 303 304 305 308 312 308 313 310 310 310 313 314 313 310 307 303 301 300 300 298
317 316 315 313 311 310 307 304 301 300 299 298 296 295 296 298 298 299 302 300 302 305 312 307 309 312 309 312 313 314 312 311 309 306 302 299 298 296
312 312 313 313 311 309 307 303 300 302 299 296 294 293 294 294 294 296 298 298 299 299 306 309 307 308 306 306 309 308 308 307 307 305 303 299 296 292
311 311 311 311 310 309 307 304 302 298 296 294 292 290 290 290 291 294 295 296 297 298 304 306 305 306 304 304 305 309 308 308 306 304 301 298 295 290
310 310 309 309 308 307 306 303 301 297 293 290 288 288 288 290 292 292 294 296 297 299 301 304 303 304 303 303 304 305 306 307 306 304 302 297 291 289
307 307 307 306 305 305 305 303 299 296 292 288 288 288 288 288 288 288 290 293 294 297 300 302 303 303 304 303 303 302 304 303 304 304 301 298 293 288
306 305 305 305 305 305 304 304 301 297 291 289 286 285 284 284 285 285 288 291 291 296 299 301 304 304 303 302 302 303 304 303 301 301 300 295 294 291
304 304 304 304 304 303 302 302 300 296 292 289 286 283 281 280 281 282 284 286 289 293 295 299 301 303 305 305 300 303 304 303 303 301 298 293 288 293
306 306 306 307 306 305 305 303 300 297 295 289 288 285 281 279 277 278 279 283 287 290 294 297 299 301 299 299 308 304 302 303 302 299 296 293 286 286
309 309 308 309 308 307 308 306 302 299 296 292 290 286 282 278 275 275 277 281 286 290 294 295 296 298 297 300 303 305 302 299 298 297 296 292 288 290
312 313 312 310 310 309 308 308 301 300 297 293 291 290 284 276 273 274 277 280 286 290 291 294 297 301 303 304 300 299 298 298 297 295 297 290 288 287
314 314 313 312 312 311 309 306 303 300 297 295 290 290 285 274 273 275 279 284 288 292 294 296 298 300 300 300 297 298 296 294 298 296 288 284 282 279
317 316 315 314 314 313 310 303 303 302 299 298 291 291 282 272 272 279 287 290 292 293 294 295 298 301 300 300 300 298 296 294 296 295 295 291 286 281